www.pogodaiklimat.ru

Погода и климат >> Архив погоды >> Япония >> Сендай


АРХИВ ПОГОДЫ в Сендае

Время (UTC), дата Ветер
(напр.,м/с)
 
Видим.   Явления Облачность Т
(С)
Тd
(С)
f
(%)
Тe
(С)
Тes
(С)
Комфортность P
(гПа)
Po
(гПа)
Тmin
(С)
Tmax
(С)
R
(мм)
R24
(мм)
S
(см)
10 16.07 ЮВ 2 н/о н/о +20.0 +19.9 99 +24 +24 комфорт 1014.7 1009.6
11 16.07 В 1 н/о н/о +19.8 +19.7 99 +24 +24 комфорт 1014.8 1009.7
12 16.07 Ю 1 1500 м слаб. дождь {морось} 10/10
[Frnb]
+20.0 +20.0 100 +25 +25 комфорт 1015.1 1010.0 +21.6 2
13 16.07 Ю 1 н/о н/о +19.9 +19.9 100 +24 +24 комфорт 1014.9 1009.8
14 16.07 В 1 н/о н/о +19.9 +19.9 100 +24 +24 комфорт 1014.9 1009.8
15 16.07 Ю 1 н/о н/о +19.9 +19.9 100 +25 +25 комфорт 1014.8 1009.7
16 16.07 СВ 1 н/о н/о +19.9 +19.9 100 +24 +24 комфорт 1014.1 1009.0
17 16.07 С 2 н/о н/о +19.9 +19.9 100 +24 +24 комфорт 1014.2 1009.1
18 16.07 С 1 1800 м слаб. морось {дождь} 10/10
[St]
+19.8 +19.8 100 +25 +25 комфорт 1014.3 1009.2 2
19 16.07 С 2 н/о н/о +19.9 +19.9 100 +24 +24 комфорт 1014.1 1009.0
20 16.07 С 2 н/о н/о +19.9 +19.9 100 +24 +24 комфорт 1014.7 1009.6
21 16.07 С 2 1800 м слаб. дождь {морось} 10/10 100 м
[Frnb]
+19.9 +19.9 100 +24 +24 комфорт 1015.0 1009.9
22 16.07 С 3 н/о н/о +20.0 +19.9 99 +24 +24 комфорт 1015.1 1010.0
23 16.07 С 2 н/о н/о +20.4 +20.2 99 +25 +25 комфорт 1015.1 1010.0
00 17.07 С 2 1500 м слаб. морось {дождь} 10/10 100 м
[St]
+21.0 +20.0 94 +27 +27 душно 1015.1 1010.0 +19.7 3
01 17.07 СВ 1 н/о н/о +22.5 +20.4 88 +29 +29 очень
душно
1014.6 1009.5
02 17.07 В 1 н/о н/о +24.5 +21.2 82 +31 +31 очень
душно
1014.3 1009.3
03 17.07 ЮВ 3 15 км {морось} 9/9
[Cu med, cong]
+23.9 +20.6 82 +30 +31 очень
душно
1014.1 1009.1
04 17.07 ЮВ 3 н/о н/о +24.3 +20.6 80 +30 +30 очень
душно
1014.1 1009.1
05 17.07 ЮВ 2 н/о н/о +24.7 +20.2 76 +30 +30 очень
душно
1013.9 1008.9
06 17.07 ЮВ 4 15 км {морось} 8/5
[Cu med, cong Ac trans Ci sp]
+23.8 +20.2 80 +29 +32 душно 1013.7 1008.7 0.0
07 17.07 ЮВ 4 н/о н/о +23.6 +19.8 79 +29 +29 душно 1014.0 1008.9
08 17.07 ЮВ 3 н/о н/о +23.8 +20.4 81 +29 +29 душно 1013.9 1008.9
09 17.07 Ю 2 20 км 9/9
[Cu Sc Ci sp]
+23.4 +20.0 81 +30 +31 очень
душно
1014.2 1009.1
11 17.07 ЮВ 3 н/о н/о +21.0 +20.2 95 +27 +27 душно 1014.9 1009.8
12 17.07 ЮВ 2 500 м туман ?/? +20.1 +19.8 98 +25 +25 комфорт 1015.4 1010.3 +25.6 0.0
13 17.07 ЮВ 2 н/о н/о +19.7 +19.6 99 +23 +23 комфорт 1015.5 1010.4
14 17.07 ЮВ 2 н/о н/о +19.3 +19.1 99 +22 +22 комфорт 1015.4 1010.3
15 17.07 Ю 2 н/о н/о +19.4 +19.4 100 +23 +23 комфорт 1015.1 1010.0
16 17.07 Ю 2 н/о н/о +19.4 +19.4 100 +22 +22 комфорт 1014.9 1009.8
17 17.07 ЮВ 3 н/о н/о +19.2 +19.2 100 +22 +22 комфорт 1014.9 1009.8
18 17.07 Ю 2 500 м туман ?/? +19.3 +19.3 100 +22 +22 комфорт 1015.1 1010.0 0.0
19 17.07 ЮВ 2 н/о н/о +19.5 +19.5 100 +23 +23 комфорт 1015.0 1009.9
20 17.07 В 1 н/о н/о +19.4 +19.4 100 +23 +23 комфорт 1015.4 1010.3
21 17.07 В 1 400 м слаб. морось {туман} 10/10
[St]
+19.4 +19.4 100 +23 +23 комфорт 1015.4 1010.3
22 17.07 ЮВ 2 н/о н/о +19.7 +19.4 98 +23 +23 комфорт 1015.4 1010.3
23 17.07 ЮВ 2 н/о н/о +20.3 +20.0 98 +25 +25 комфорт 1015.2 1010.1
00 18.07 ЮВ 1 8000 м в посл. час морось {туман} 10/10
[St]
+20.5 +19.3 93 +26 +26 душно 1015.3 1010.2 +19.1 0.0
01 18.07 ЮВ 2 н/о н/о +21.1 +19.8 92 +26 +26 душно 1015.5 1010.4
02 18.07 ЮВ 2 н/о н/о +21.4 +20.1 92 +27 +27 душно 1015.5 1010.4
03 18.07 ЮВ 2 5000 м туман на расстоянии 10/10
[St]
+22.0 +20.6 92 +28 +28 душно 1014.9 1009.8
04 18.07 ЮВ 2 н/о н/о +22.3 +20.8 91 +29 +29 очень
душно
1014.2 1009.1
05 18.07 ЮВ 3 н/о н/о +23.1 +20.3 84 +30 +30 очень
душно
1013.6 1008.5
06 18.07 ЮВ 3 10 км 10/10
[Cu med, cong]
+22.2 +20.3 89 +28 +28 душно 1013.6 1008.5
07 18.07 ЮВ 2 н/о н/о +22.1 +20.6 91 +28 +28 душно 1013.2 1008.1
08 18.07 ЮВ 2 н/о н/о +21.9 +20.7 93 +28 +28 душно 1013.6 1008.5
09 18.07 В 1 5000 м слаб. ливневой дождь 10/10
[Cu med, cong]
+21.7 +20.9 95 +28 +28 душно 1013.4 1008.3
10 18.07 ЮВ 2 н/о н/о +21.4 +20.7 96 +27 +27 душно 1013.9 1008.8
11 18.07 ЮВ 2 н/о н/о +21.4 +21.1 98 +27 +27 душно 1014.1 1009.0
12 18.07 В 1 2000 м слаб. ливневой дождь 10/10
[Cu med, cong]
+21.2 +21.0 99 +27 +27 душно 1013.9 1008.8 +23.4 1
13 18.07 Ю 1 н/о н/о +21.2 +21.2 100 +27 +27 душно 1013.6 1008.5
14 18.07 Ю 1 н/о н/о +21.1 +21.1 100 +26 +26 душно 1013.1 1008.0
15 18.07 З 1 н/о н/о +21.2 +21.0 99 +27 +27 душно 1012.7 1007.6
16 18.07 В 1 н/о н/о +21.3 +21.1 99 +27 +27 душно 1011.5 1006.4
17 18.07 Ю 1 н/о н/о +21.3 +21.3 100 +27 +27 душно 1011.1 1006.0
18 18.07 Ю 1 2000 м слаб. ливневой дождь 10/10
[Cu med, cong]
+21.1 +21.1 100 +26 +26 душно 1010.7 1005.6 2
19 18.07 ЮВ 1 н/о н/о +21.1 +21.1 100 +26 +26 душно 1010.4 1005.3
20 18.07 З 1 н/о н/о +21.2 +21.2 100 +27 +27 душно 1010.1 1005.0
21 18.07 С 2 6000 м в посл. час ливневой дождь 10/10 100 м
[Cu Sc]
+21.4 +21.2 99 +27 +27 душно 1010.2 1005.1
22 18.07 С 3 н/о н/о +22.1 +21.6 97 +29 +29 очень
душно
1010.6 1005.5
23 18.07 С 2 н/о н/о +22.9 +21.5 92 +31 +31 очень
душно
1010.8 1005.8
00 19.07 С 1 15 км в посл. час ливневой дождь 9/9
[Cu med, cong Ac As]
+23.5 +21.8 90 +30 +32 очень
душно
1010.9 1005.9 +21.0 2
01 19.07 Ю 1 н/о н/о +25.8 +21.9 79 +33 +33 очень
душно
1010.6 1005.6
02 19.07 ЮВ 2 н/о н/о +28.3 +23.0 73 +38 +38 очень
душно
1010.1 1005.2
03 19.07 СЗ 3 10 км слаб. ливневой дождь 9/8
[Cu med, cong Ac As Ci sp]
+27.4 +22.4 74 +36 +39 очень
душно
1010.2 1005.2
04 19.07 Ю 3 н/о н/о +27.4 +23.6 80 +37 +37 очень
душно
1010.1 1005.1
05 19.07 Ю 3 н/о н/о +28.5 +23.6 75 +39 +39 очень
душно
1009.6 1004.7
06 19.07 СВ 4 20 км {ливн. осадки} 9/8
[Cu med, cong Ci sp]
+27.6 +21.9 71 +36 +37 очень
душно
1010.1 1005.1 1
07 19.07 В 2 н/о н/о +28.0 +22.5 72 +37 +37 очень
душно
1009.8 1004.9
08 19.07 ЮВ 2 н/о н/о +28.4 +22.9 72 +38 +38 очень
душно
1010.4 1005.5
09 19.07 В 2 25 км 9/1
[Cu med, cong Ac trans Ci sp]
+27.6 +22.3 73 +36 +36 очень
душно
1010.8 1005.8
10 19.07 В 1 н/о н/о +26.1 +22.0 78 +34 +34 очень
душно
1011.4 1006.4
11 19.07 С 3 н/о н/о +25.4 +20.4 74 +31 +31 очень
душно
1012.1 1007.1
12 19.07 СЗ 1 15 км 9/1
[Cu med, cong Ci sp]
+24.0 +20.3 80 +30 +30 очень
душно
1012.7 1007.7 +29.2 1
13 19.07 С 2 н/о н/о +24.1 +20.2 79 +30 +30 очень
душно
1012.8 1007.8
14 19.07 ЮЗ 1 н/о н/о +23.1 +20.4 85 +30 +30 очень
душно
1013.2 1008.1
15 19.07 ЮВ 1 н/о н/о +23.2 +20.4 84 +30 +30 очень
душно
1013.1 1008.0
16 19.07 ЮВ 1 н/о н/о +22.6 +20.2 86 +29 +29 очень
душно
1013.0 1007.9
17 19.07 СВ 2 н/о н/о +22.8 +19.8 83 +29 +29 очень
душно
1013.0 1007.9
18 19.07 СЗ 2 15 км 9/0
[Ac trans Ci sp]
+22.8 +19.8 83 +29 +29 очень
душно
1013.1 1008.0
19 19.07 В 1 н/о н/о +21.8 +19.9 89 +27 +27 душно 1013.5 1008.4
20 19.07 З 2 н/о н/о +21.8 +20.1 90 +27 +27 душно 1014.1 1009.0
21 19.07 Ю 1 20 км 8/1
[Cu med, cong Ac trans Ci sp]
+23.0 +20.5 86 +30 +31 очень
душно
1014.5 1009.4
22 19.07 ЮВ 2 н/о н/о +24.5 +21.6 84 +31 +31 очень
душно
1014.6 1009.6
23 19.07 ЮВ 3 н/о н/о +24.1 +20.8 82 +30 +30 очень
душно
1015.0 1010.0
00 20.07 ЮВ 3 20 км 9/3
[Cu med, cong Ac trans Ci sp]
+25.1 +21.0 78 +32 +37 очень
душно
1015.1 1010.1 +21.2
01 20.07 ЮВ 5 н/о н/о +25.1 +21.0 78 +32 +32 очень
душно
1015.0 1010.0
02 20.07 ЮВ 5 н/о н/о +25.1 +20.8 77 +31 +31 очень
душно
1015.2 1010.2
03 20.07 ЮВ 5 20 км 9/4
[Cu med, cong Ac trans Ci sp]
+25.0 +20.9 78 +31 +35 очень
душно
1015.3 1010.3
04 20.07 ЮВ 5 н/о н/о +25.5 +20.5 74 +32 +32 очень
душно
1014.9 1009.9
05 20.07 Ю 6 н/о н/о +25.7 +20.7 74 +32 +32 очень
душно
1014.6 1009.6
06 20.07 ЮВ 5 20 км слаб. ливневой дождь 9/6
[Cu med, cong Ac As]
+23.9 +20.3 80 +30 +31 очень
душно
1015.1 1010.0 0.0
07 20.07 ЮВ 4 н/о н/о +23.4 +22.6 95 +32 +32 очень
душно
1014.8 1009.7
08 20.07 ЮВ 2 н/о н/о +23.3 +22.8 97 +32 +32 очень
душно
1014.7 1009.6
09 20.07 Ю 1 10 км слаб. ливневой дождь 9/8
[Cu med, cong Ci sp]
+23.6 +22.9 96 +31 +31 очень
душно
1014.6 1009.5
10 20.07 В 1 н/о н/о +23.5 +23.0 97 +31 +31 очень
душно
1014.9 1009.8
11 20.07 В 2 н/о н/о +22.2 +21.9 98 +29 +29 очень
душно
1015.7 1010.6
12 20.07 В 3 1500 м дымка {ливн. осадки} 10/10
[St]
+21.6 +21.4 99 +28 +28 очень
душно
1016.4 1011.3 +26.9 1
13 20.07 В 3 н/о н/о +21.0 +20.8 99 +27 +27 душно 1016.5 1011.4
14 20.07 В 2 н/о н/о +21.0 +21.0 100 +27 +27 душно 1016.5 1011.4
15 20.07 В 2 н/о н/о +20.8 +20.8 100 +27 +27 душно 1016.5 1011.4
16 20.07 ЮВ 2 н/о н/о +20.6 +20.6 100 +26 +26 душно 1016.7 1011.6
17 20.07 Ю 2 н/о н/о +20.4 +20.4 100 +25 +25 комфорт 1016.7 1011.6
18 20.07 В 2 4000 м слаб. дождь 10/10
[Frnb]
+20.1 +20.1 100 +25 +25 комфорт 1017.0 1011.9 2
19 20.07 ЮВ 2 н/о н/о +20.0 +20.0 100 +24 +24 комфорт 1017.2 1012.1
20 20.07 ЮВ 2 н/о н/о +19.8 +19.7 99 +24 +24 комфорт 1017.2 1012.1
21 20.07 ЮВ 2 3000 м слаб. ливневой дождь {морось} 10/10
[Cu med, cong]
+20.0 +19.9 99 +24 +24 комфорт 1017.1 1012.0
22 20.07 ЮВ 2 н/о н/о +20.3 +20.0 98 +25 +25 комфорт 1017.2 1012.1
23 20.07 ЮВ 2 н/о н/о +20.2 +19.7 97 +25 +25 комфорт 1017.4 1012.3
00 21.07 В 2 9000 м дымка {ливн. осадки, дождь} 10/9
[St As op]
+20.6 +19.1 91 +26 +26 душно 1017.2 1012.1 +19.8 3
01 21.07 Ю 4 н/о н/о +20.4 +20.1 98 +25 +25 комфорт 1017.3 1012.2
02 21.07 В 2 н/о н/о +20.5 +19.0 91 +25 +25 комфорт 1017.0 1011.9
03 21.07 ЮВ 3 3000 м слаб. морось 10/10 100 м
[St]
+20.3 +19.8 97 +25 +25 комфорт 1016.9 1011.8
04 21.07 ЮВ 3 н/о н/о +20.2 +19.4 95 +24 +24 комфорт 1016.8 1011.7
05 21.07 ЮВ 2 н/о н/о +20.6 +19.1 91 +25 +25 комфорт 1016.6 1011.5
06 21.07 ЮВ 4 15 км в посл. час морось 10/10
[St]
+20.5 +19.0 91 +25 +25 комфорт 1016.3 1011.2 0.5
07 21.07 Ю 3 н/о н/о +20.6 +18.6 88 +25 +25 комфорт 1015.9 1010.8
08 21.07 ЮВ 3 н/о н/о +20.5 +19.0 91 +25 +25 комфорт 1016.0 1010.9
09 21.07 ЮВ 3 15 км 9/9
[Sc Ac As]
+20.3 +18.8 91 +24 +24 комфорт 1016.0 1010.9
10 21.07 ЮВ 3 н/о н/о +20.1 +18.6 91 +24 +24 комфорт 1016.3 1011.2
11 21.07 ЮВ 3 н/о н/о +19.9 +18.4 91 +23 +23 комфорт 1016.5 1011.4
12 21.07 ЮВ 3 20 км 10/6
[Sc Ac As]
+19.8 +18.1 90 +23 +23 комфорт 1016.4 1011.3 +21.2 0.5
13 21.07 ЮВ 3 н/о н/о +19.9 +18.0 89 +23 +23 комфорт 1016.2 1011.1
14 21.07 ЮВ 2 н/о н/о +19.9 +18.4 91 +24 +24 комфорт 1015.9 1010.8
15 21.07 ЮВ 2 н/о н/о +19.9 +18.6 92 +24 +24 комфорт 1015.6 1010.5
16 21.07 В 2 н/о н/о +19.7 +18.2 91 +23 +23 комфорт 1015.2 1010.1
17 21.07 Ю 2 н/о н/о +19.6 +19.1 97 +23 +23 комфорт 1014.6 1009.5
18 21.07 Ю 2 4000 м слаб. морось 10/10 100 м
[St]
+19.2 +18.7 97 +22 +22 комфорт 1014.5 1009.4 0.0
19 21.07 ЮВ 2 н/о н/о +18.9 +18.7 99 +21 +21 комфорт 1014.3 1009.2
20 21.07 ЮВ 2 н/о н/о +19.1 +19.1 100 +22 +22 комфорт 1014.1 1009.0
21 21.07 Ю 2 1500 м слаб. морось 10/10
[St]
+19.2 +19.2 100 +22 +22 комфорт 1014.2 1009.1
22 21.07 Ю 2 н/о н/о +19.7 +19.6 99 +23 +23 комфорт 1013.9 1008.8
23 21.07 ЮВ 2 н/о н/о +19.6 +19.1 97 +23 +23 комфорт 1013.8 1008.7
00 22.07 ЮВ 2 3000 м слаб. морось {дождь} 10/10 100 м
[St]
+20.2 +19.7 97 +25 +25 комфорт 1013.7 1008.6 +18.9 2
01 22.07 ЮВ 4 н/о н/о +20.5 +19.9 96 +25 +25 комфорт 1013.3 1008.2
02 22.07 ЮВ 3 н/о н/о +20.3 +19.5 95 +24 +24 комфорт 1013.1 1008.0
03 22.07 ЮВ 3 5000 м слаб. морось 10/10
[St]
+20.6 +19.6 94 +25 +25 комфорт 1012.5 1007.4
04 22.07 ЮВ 4 н/о н/о +21.6 +20.1 91 +27 +27 душно 1011.9 1006.8
05 22.07 ЮВ 4 н/о н/о +21.5 +19.8 90 +27 +27 душно 1011.5 1006.4
06 22.07 ЮВ 3 8000 м слаб. морось 10/10
[St]
+21.2 +20.2 94 +26 +26 душно 1011.2 1006.1 0.0
07 22.07 ЮВ 3 н/о н/о +20.5 +20.0 97 +25 +25 комфорт 1011.1 1006.0
08 22.07 ЮВ 3 н/о н/о +20.5 +20.3 99 +25 +25 комфорт 1010.8 1005.7
09 22.07 ЮВ 3 2500 м дождь {морось} 10/10 100 м
[St]
+20.5 +20.3 99 +25 +25 комфорт 1010.8 1005.7
10 22.07 ЮВ 2 н/о н/о +20.5 +20.3 99 +26 +26 душно 1010.9 1005.8
11 22.07 ЮВ 2 н/о н/о +20.5 +20.5 100 +26 +26 душно 1010.9 1005.8
12 22.07 Ю 1 1800 м в посл. час морось {дождь} 10/10 100 м
[St]
+20.6 +20.6 100 +26 +26 душно 1011.2 1006.1 +21.8 1
13 22.07 штиль 0 н/о н/о +20.6 +20.6 100 +25 +25 комфорт 1010.8 1005.7
14 22.07 С 1 н/о н/о +20.7 +20.7 100 +27 +27 душно 1010.4 1005.3
15 22.07 СЗ 2 н/о н/о +20.6 +20.6 100 +26 +26 душно 1009.9 1004.8
16 22.07 СЗ 2 н/о н/о +20.5 +20.5 100 +26 +26 душно 1009.6 1004.5
17 22.07 С 2 н/о н/о +20.5 +20.5 100 +26 +26 душно 1009.3 1004.2
18 22.07 С 3 1300 м слаб. морось {дождь} 10/10
[St]
+20.5 +20.5 100 +25 +25 комфорт 1008.9 1003.8 2
19 22.07 С 3 н/о н/о +20.3 +20.3 100 +25 +25 комфорт 1008.9 1003.8
20 22.07 С 3 н/о н/о +20.2 +20.2 100 +25 +25 комфорт 1008.9 1003.8
21 22.07 С 3 3000 м в посл. час дождь {ливн. осадки} 10/10
[St]
+20.5 +20.3 99 +25 +25 комфорт 1008.9 1003.8
22 22.07 С 2 н/о н/о +20.6 +20.4 99 +26 +26 душно 1009.1 1004.0
23 22.07 С 2 н/о н/о +20.8 +20.6 99 +27 +27 душно 1008.7 1003.6
00 23.07 С 2 2500 м слаб. морось {дождь} 10/10 100 м
[St]
+21.4 +21.2 99 +27 +27 душно 1008.6 1003.5 +20.2 3
01 23.07 ЮВ 7 н/о н/о +21.6 +21.4 99 +28 +28 очень
душно
1008.5 1003.4
02 23.07 ЮВ 5 н/о н/о +21.8 +21.6 99 +28 +28 душно 1008.4 1003.3
03 23.07 ЮВ 5 3000 м слаб. морось 10/10 100 м
[St]
+21.8 +21.6 99 +28 +28 душно 1007.9 1002.8
04 23.07 ЮВ 4 н/о н/о +21.9 +21.6 98 +28 +28 душно 1007.9 1002.8
05 23.07 ЮВ 4 н/о н/о +21.5 +21.3 99 +27 +27 душно 1007.8 1002.7
06 23.07 ЮВ 3 1600 м слаб. ливневой дождь {морось} 10/10 100 м
[Frnb]
+21.8 +21.6 99 +28 +28 душно 1007.7 1002.6 4
07 23.07 В 2 н/о н/о +21.5 +21.2 98 +27 +27 душно 1007.8 1002.7
08 23.07 В 2 н/о н/о +21.4 +21.1 98 +27 +27 душно 1007.7 1002.6
09 23.07 В 2 1200 м слаб. ливневой дождь 10/10 100 м
[Frnb]
+21.4 +21.2 99 +27 +27 душно 1007.8 1002.7
10 23.07 ЮВ 2 н/о н/о +21.3 +21.3 100 +27 +27 душно 1008.0 1002.9

 

Местоположение метеостанции Сендай (Япония): широта 38.27 долгота 140.90 высота над уровнем моря 43 м.

В архиве по умолчанию представлена погода в Сендае за последнюю неделю. Архивные данные за месяц целиком и за предыдущие месяцы, начиная с января 2011 года, Вы можете получить, выбрав интересующий диапазон дат из раскрывающегося списка и нажав кнопку "Ввод!".


*Определитесь, кто Вы:
робот инопланетянин человек

Внимание! Время в таблицах - всемирное. Для получения местного времени необходимо прибавить поправку, которая равна 9 ч.

Смотрите также архив погоды в соседних городах и на ближайших метеорологических станциях:

Погода в Исиномаки (Япония) (39 км)
Погода в Ямаге (Япония) (48 км)
Погода в Фукусиме (Япония) (68 км)
Погода в Синдзё (Япония) (74 км)
Погода в Офунато (Япония) (113 км)
Погода в Сакате (Япония) (116 км)
Погода в Вакамацу (Япония) (124 км)
Погода в Сиракаве (Япония) (141 км)
Погода в Онахаме (Япония) (147 км)
Погода в Мориоке (Япония) (161 км)

Пояснения к столбцам:

Ветер - указаны скорость ветра в м/с - средняя за 10 мин, порывы в срок и между сроками (в фигурных скобках) и направление, откуда дует ветер: С - северный, СВ - северо-восточный, В - восточный, ЮВ - юго-восточный, Ю - южный, ЮЗ - юго-западный, З - западный, СЗ - северо-западный.
Видимость - горизонтальная дальность видимости в метрах или километрах. При видимости от 1 до 10 км при отсутствии осадков обычно наблюдается дымка, при ухудшении видимости до 1 км и менее - туман. В сухую погоду видимость может ухудшаться дымом, пылью или мглою.
Явления - указаны атмосферные явления, наблюдавшиеся в срок или в последний час перед сроком; фигурными скобками обозначены явления, наблюдавшиеся между сроками (за 1-3 часа до срока); квадратными скобками обозначены град или гололедные отложения с указанием их диаметра в мм.
Облачность - указаны через наклонную черту общая и нижняя облачность в баллах и высота нижней границы облаков в метрах; квадратными скобками обозначены формы облаков: Ci - перистые, Cs - перисто-слоистые, Cc - перисто-кучевые, Ac - высококучевые, As - высокослоистые, Sc - слоисто-кучевые, Ns - слоисто-дождевые, Cu - кучевые, Cb - кучево-дождевые. Подробнее классификацию облаков см. в Атласе облаков (PDF).
T - Температура воздуха - температура, измеренная на высоте 2 м над землей.
Td - Температура точки росы - температура, при понижении до которой содержащийся в воздухе водяной пар достигнет насыщения.
f - Относительная влажность воздуха - влажноcть воздуха, измеренная на высоте 2 м над землей.
Te - Эффективная температура - температура, которую ощущает одетый по сезону человек в тени. Характеристика душности погоды. При расчете учитывается влияние влажности воздуха и скорости ветра на теплоощущения человека.
Tes - Эффективная температура на солнце - температура, которую ощущает человек, с поправкой на солнечный нагрев. Характеристика знойности погоды. Зависит от высоты солнца над горизонтом, облачности и скорости ветра. Ночью, в пасмурную погоду, а также при ветре 12 м/с и более поправка равна нулю.
P - Атмосферное давление - приведенное к уровню моря атмосферное давление.
Po - Атмосферное давление - измеренное на уровне метеостанции атмосферное давление.
Tmin - Минимальная температура - минимум температуры воздуха на высоте 2 м над землей.
Tmax - Максимальная температура - максимум температуры воздуха на высоте 2 м над землей.
R - Количество осадков - Количество выпавших осадков за период времени, мм. При наведении курсора мыши на число - период времени, за который выпало указанное количество осадков.
R24 - Количество осадков - Количество выпавших осадков за 24 часа, мм.
S - Снежный покров - Высота снежного покрова, см. При наведении курсора мыши на число - состояние снежного покрова и степень покрытия местности в баллах.